DAL375 MMUN-KFLL

Flight info

Callsign DAL375
Flight time 1h 10m
Altitude 37000
Route NUDAL1A NUDAL UV106 PODON UG765 MAXIM BHHIA3
Aircraft B738/M-SDE2E3FGHIRWXY/LB1

Departure

Time 2026-05-03 23:27
Airport Cancún International Airport (MMUN)

Arrival

Time 2026-05-04 00:37
Airport Fort Lauderdale Hollywood International Airport (KFLL)
Time Latitude Longitude Altitude Speed Heading
2026-05-03 23:14 21.04676 -86.88376 43 ft 0 kts 124°
2026-05-03 23:22 21.04683 -86.88387 42 ft 3 kts 123°
2026-05-03 23:22 21.04697 -86.88410 43 ft 3 kts 123°
2026-05-03 23:22 21.04701 -86.88417 43 ft 0 kts 123°
2026-05-03 23:23 21.04701 -86.88416 43 ft 0 kts 134°
2026-05-03 23:24 21.04680 -86.88432 41 ft 7 kts 236°
2026-05-03 23:24 21.04632 -86.88509 39 ft 15 kts 220°
2026-05-03 23:24 21.04542 -86.88574 37 ft 15 kts 212°
2026-05-03 23:24 21.04457 -86.88649 36 ft 15 kts 264°
2026-05-03 23:25 21.04509 -86.88749 35 ft 15 kts 304°
2026-05-03 23:25 21.04568 -86.88845 35 ft 15 kts 303°
2026-05-03 23:25 21.04624 -86.88937 36 ft 13 kts 303°
2026-05-03 23:25 21.04636 -86.88998 36 ft 8 kts 246°
2026-05-03 23:26 21.04595 -86.89040 35 ft 8 kts 214°
2026-05-03 23:26 21.04533 -86.89069 34 ft 10 kts 174°
2026-05-03 23:26 21.04478 -86.89014 33 ft 12 kts 123°
2026-05-03 23:26 21.04335 -86.88786 34 ft 73 kts 123°
2026-05-03 23:27 21.03910 -86.88107 25 ft 142 kts 123°
2026-05-03 23:27 21.03281 -86.87095 290 ft 173 kts 124°
2026-05-03 23:27 21.02594 -86.86104 1203 ft 167 kts 131°
2026-05-03 23:27 21.01851 -86.85143 1916 ft 174 kts 123°
2026-05-03 23:28 21.01221 -86.84010 2538 ft 186 kts 117°
2026-05-03 23:28 21.00611 -86.82738 3138 ft 200 kts 116°
2026-05-03 23:28 20.99958 -86.81356 3650 ft 221 kts 116°
2026-05-03 23:28 20.99236 -86.79839 4317 ft 236 kts 116°
2026-05-03 23:29 20.98462 -86.78230 4851 ft 257 kts 116°
2026-05-03 23:29 20.97608 -86.76465 5048 ft 276 kts 116°
2026-05-03 23:29 20.96712 -86.74607 5486 ft 287 kts 114°
2026-05-03 23:29 20.96077 -86.72602 6439 ft 287 kts 98°
2026-05-03 23:30 20.96071 -86.70485 7387 ft 286 kts 80°
2026-05-03 23:30 20.96474 -86.68429 8252 ft 288 kts 74°
2026-05-03 23:30 20.96955 -86.66340 9023 ft 295 kts 75°
2026-05-03 23:30 20.97421 -86.64195 9812 ft 301 kts 75°
2026-05-03 23:31 20.97869 -86.61990 10577 ft 308 kts 75°
2026-05-03 23:31 20.98344 -86.59731 11166 ft 319 kts 72°
2026-05-03 23:31 20.98995 -86.57443 11703 ft 331 kts 68°
2026-05-03 23:31 20.99794 -86.55048 12112 ft 349 kts 66°
2026-05-03 23:32 21.00674 -86.52577 12557 ft 363 kts 66°
2026-05-03 23:32 21.01600 -86.50009 12951 ft 378 kts 66°
2026-05-03 23:32 21.02567 -86.47324 13299 ft 394 kts 66°
2026-05-03 23:32 21.03555 -86.44548 13608 ft 409 kts 67°
2026-05-03 23:33 21.04581 -86.41629 13920 ft 424 kts 67°
2026-05-03 23:33 21.05613 -86.38673 14342 ft 433 kts 68°
2026-05-03 23:33 21.06673 -86.35611 14928 ft 437 kts 68°
2026-05-03 23:33 21.07719 -86.32576 15455 ft 443 kts 68°
2026-05-03 23:34 21.08793 -86.29452 16139 ft 444 kts 69°
2026-05-03 23:34 21.09860 -86.26343 16542 ft 453 kts 69°
2026-05-03 23:34 21.10943 -86.23180 16980 ft 459 kts 69°
2026-05-03 23:34 21.12047 -86.19955 17557 ft 462 kts 69°
2026-05-03 23:35 21.13154 -86.16734 18046 ft 467 kts 69°
2026-05-03 23:35 21.14281 -86.13471 18661 ft 468 kts 68°
2026-05-03 23:35 21.15418 -86.10171 19011 ft 476 kts 68°
2026-05-03 23:35 21.16558 -86.06850 19637 ft 477 kts 69°
2026-05-03 23:36 21.17711 -86.03484 19909 ft 486 kts 68°
2026-05-03 23:36 21.18845 -86.00098 20557 ft 486 kts 69°
2026-05-03 23:36 21.19849 -85.96592 20958 ft 493 kts 73°
2026-05-03 23:36 21.20670 -85.93056 21388 ft 498 kts 76°
2026-05-03 23:37 21.21393 -85.89447 21949 ft 499 kts 77°
2026-05-03 23:37 21.22072 -85.85776 22373 ft 504 kts 78°
2026-05-03 23:37 21.22731 -85.82081 22827 ft 508 kts 78°
2026-05-03 23:37 21.23391 -85.78359 23224 ft 512 kts 78°
2026-05-03 23:38 21.24065 -85.74579 23649 ft 516 kts 78°
2026-05-03 23:38 21.24763 -85.70839 24017 ft 520 kts 76°
2026-05-03 23:38 21.25665 -85.67065 24475 ft 521 kts 71°
2026-05-03 23:38 21.26982 -85.63508 24919 ft 520 kts 62°
2026-05-03 23:39 21.28788 -85.60123 25420 ft 518 kts 53°
2026-05-03 23:39 21.30979 -85.57109 26031 ft 512 kts 45°
2026-05-03 23:39 21.33425 -85.54383 26608 ft 509 kts 40°
2026-05-03 23:39 21.36024 -85.51821 27227 ft 506 kts 38°
2026-05-03 23:40 21.38702 -85.49342 27767 ft 505 kts 37°
2026-05-03 23:40 21.41364 -85.46930 28280 ft 506 kts 36°
2026-05-03 23:40 21.44061 -85.44478 28848 ft 505 kts 37°
2026-05-03 23:40 21.46713 -85.42029 29384 ft 505 kts 37°
2026-05-03 23:41 21.49335 -85.39566 29903 ft 505 kts 37°
2026-05-03 23:41 21.51976 -85.37047 30411 ft 505 kts 38°
2026-05-03 23:41 21.54577 -85.34538 30896 ft 505 kts 38°
2026-05-03 23:41 21.57158 -85.32030 31341 ft 505 kts 38°
2026-05-03 23:42 21.59787 -85.29461 31763 ft 505 kts 38°
2026-05-03 23:42 21.62375 -85.26925 32185 ft 505 kts 38°
2026-05-03 23:42 21.64966 -85.24379 32705 ft 503 kts 38°
2026-05-03 23:42 21.67527 -85.21860 33265 ft 500 kts 38°
2026-05-03 23:43 21.70100 -85.19330 33794 ft 498 kts 38°
2026-05-03 23:43 21.72659 -85.16813 34322 ft 496 kts 38°
2026-05-03 23:43 21.75216 -85.14299 34737 ft 496 kts 38°
2026-05-03 23:43 21.77768 -85.11791 35166 ft 496 kts 38°
2026-05-03 23:44 21.80351 -85.09251 35570 ft 496 kts 38°
2026-05-03 23:44 21.82896 -85.06747 35895 ft 498 kts 38°
2026-05-03 23:44 21.85471 -85.04215 36207 ft 499 kts 38°
2026-05-03 23:44 21.88045 -85.01681 36490 ft 501 kts 38°
2026-05-03 23:45 21.90652 -84.99113 36860 ft 500 kts 38°
2026-05-03 23:45 21.93228 -84.96574 37265 ft 499 kts 38°
2026-05-03 23:45 21.95776 -84.94060 37669 ft 497 kts 38°
2026-05-03 23:45 21.98324 -84.91543 38043 ft 496 kts 38°
2026-05-03 23:46 22.00871 -84.89027 38240 ft 498 kts 38°
2026-05-03 23:46 22.03458 -84.86472 38489 ft 499 kts 39°
2026-05-03 23:46 22.06011 -84.83950 38756 ft 500 kts 38°
2026-05-03 23:46 22.08576 -84.81415 39043 ft 500 kts 38°
2026-05-03 23:47 22.11157 -84.78861 39307 ft 500 kts 38°
2026-05-03 23:47 22.13690 -84.76353 39579 ft 500 kts 38°
2026-05-03 23:47 22.16268 -84.73799 39756 ft 501 kts 38°
2026-05-03 23:47 22.18849 -84.71241 39893 ft 503 kts 38°
2026-05-03 23:48 22.24010 -84.66122 39954 ft 503 kts 38°
2026-05-03 23:48 22.29152 -84.61017 39958 ft 501 kts 38°
2026-05-03 23:49 22.34265 -84.55934 39959 ft 500 kts 38°
2026-05-03 23:49 22.39409 -84.50819 39965 ft 502 kts 38°
2026-05-03 23:50 22.44555 -84.45695 39960 ft 503 kts 38°
2026-05-03 23:50 22.49674 -84.40590 39966 ft 501 kts 38°
2026-05-03 23:51 22.54795 -84.35482 39969 ft 503 kts 38°
2026-05-03 23:51 22.59969 -84.30315 39973 ft 506 kts 38°
2026-05-03 23:52 22.65137 -84.25061 39978 ft 511 kts 41°
2026-05-03 23:52 22.69973 -84.19293 39982 ft 517 kts 46°
2026-05-03 23:53 22.74548 -84.13311 39983 ft 519 kts 47°
2026-05-03 23:53 22.79169 -84.07252 39989 ft 519 kts 46°
2026-05-03 23:54 22.83839 -84.01254 39988 ft 519 kts 46°
2026-05-03 23:54 22.88514 -83.95311 39991 ft 520 kts 46°
2026-05-03 23:55 22.93219 -83.89346 39989 ft 521 kts 46°
2026-05-03 23:55 22.97916 -83.83388 39985 ft 520 kts 46°
2026-05-03 23:56 23.02580 -83.77462 39984 ft 520 kts 46°
2026-05-03 23:56 23.07292 -83.71468 39990 ft 519 kts 46°
2026-05-03 23:57 23.11984 -83.65488 39988 ft 520 kts 46°
2026-05-03 23:57 23.16686 -83.59489 39986 ft 521 kts 46°
2026-05-03 23:58 23.21370 -83.53503 39985 ft 522 kts 46°
2026-05-03 23:58 23.26062 -83.47504 39988 ft 522 kts 46°
2026-05-03 23:59 23.30779 -83.41466 39986 ft 522 kts 46°
2026-05-03 23:59 23.35473 -83.35449 39986 ft 523 kts 46°
2026-05-04 00:00 23.40152 -83.29443 39988 ft 522 kts 46°
2026-05-04 00:00 23.44875 -83.23373 39988 ft 524 kts 46°
2026-05-04 00:01 23.49575 -83.17323 39989 ft 524 kts 46°
2026-05-04 00:01 23.54258 -83.11289 39986 ft 524 kts 46°
2026-05-04 00:02 23.58962 -83.05220 39987 ft 524 kts 46°
2026-05-04 00:02 23.63679 -82.99126 39990 ft 526 kts 46°
2026-05-04 00:03 23.68383 -82.93040 39988 ft 526 kts 46°
2026-05-04 00:03 23.73119 -82.86905 39991 ft 526 kts 46°
2026-05-04 00:04 23.77835 -82.80788 39988 ft 528 kts 46°
2026-05-04 00:04 23.82522 -82.74701 39992 ft 526 kts 46°
2026-05-04 00:05 23.87256 -82.68543 39994 ft 527 kts 46°
2026-05-04 00:05 23.91969 -82.62405 39996 ft 526 kts 46°
2026-05-04 00:06 23.96658 -82.56294 39996 ft 527 kts 46°
2026-05-04 00:06 24.01384 -82.50163 39995 ft 526 kts 45°
2026-05-04 00:07 24.06305 -82.44303 39988 ft 525 kts 43°
2026-05-04 00:07 24.11379 -82.38566 39989 ft 525 kts 42°
2026-05-04 00:08 24.16474 -82.32805 39985 ft 524 kts 42°
2026-05-04 00:08 24.21492 -82.27067 39986 ft 525 kts 43°
2026-05-04 00:09 24.26534 -82.21243 39987 ft 527 kts 43°
2026-05-04 00:09 24.31553 -82.15416 39989 ft 526 kts 43°
2026-05-04 00:10 24.36584 -82.09560 39990 ft 526 kts 43°
2026-05-04 00:10 24.41592 -82.03725 39990 ft 527 kts 43°
2026-05-04 00:11 24.46632 -81.97918 39979 ft 527 kts 41°
2026-05-04 00:11 24.49317 -81.95126 39553 ft 527 kts 37°
2026-05-04 00:11 24.52094 -81.92515 39014 ft 520 kts 35°
2026-05-04 00:12 24.54880 -81.90063 38403 ft 515 kts 33°
2026-05-04 00:12 24.57703 -81.87676 37735 ft 513 kts 33°
2026-05-04 00:12 24.60541 -81.85320 37053 ft 511 kts 32°
2026-05-04 00:12 24.63389 -81.82965 36358 ft 510 kts 32°
2026-05-04 00:13 24.66217 -81.80619 35633 ft 511 kts 32°
2026-05-04 00:13 24.69055 -81.78252 34835 ft 513 kts 33°
2026-05-04 00:13 24.71875 -81.75884 34013 ft 515 kts 33°
2026-05-04 00:13 24.74686 -81.73498 33160 ft 516 kts 33°
2026-05-04 00:14 24.77514 -81.71079 32360 ft 518 kts 34°
2026-05-04 00:14 24.80370 -81.68619 31511 ft 520 kts 33°
2026-05-04 00:14 24.83206 -81.66168 30609 ft 523 kts 34°
2026-05-04 00:14 24.86046 -81.63710 29654 ft 527 kts 34°
2026-05-04 00:15 24.88954 -81.61189 28631 ft 530 kts 34°
2026-05-04 00:15 24.91863 -81.58669 27583 ft 534 kts 34°
2026-05-04 00:15 24.94756 -81.56161 26472 ft 538 kts 34°
2026-05-04 00:15 24.97702 -81.53606 25310 ft 542 kts 34°
2026-05-04 00:16 25.00679 -81.51022 24096 ft 546 kts 34°
2026-05-04 00:16 25.03614 -81.48473 23356 ft 538 kts 34°
2026-05-04 00:16 25.06533 -81.45929 22838 ft 526 kts 34°
2026-05-04 00:16 25.09351 -81.43471 22254 ft 517 kts 34°
2026-05-04 00:17 25.12183 -81.41002 21629 ft 510 kts 34°
2026-05-04 00:17 25.14930 -81.38608 21010 ft 503 kts 34°
2026-05-04 00:17 25.17653 -81.36237 20373 ft 496 kts 34°
2026-05-04 00:17 25.20326 -81.33909 19746 ft 489 kts 35°
2026-05-04 00:18 25.22966 -81.31606 19111 ft 483 kts 35°
2026-05-04 00:18 25.25579 -81.29286 18461 ft 477 kts 36°
2026-05-04 00:18 25.28119 -81.26979 17828 ft 471 kts 37°
2026-05-04 00:18 25.30637 -81.24662 17199 ft 465 kts 37°
2026-05-04 00:19 25.33069 -81.22415 16569 ft 459 kts 37°
2026-05-04 00:19 25.35517 -81.20151 15952 ft 453 kts 37°
2026-05-04 00:19 25.37911 -81.17939 15311 ft 439 kts 38°
2026-05-04 00:19 25.40171 -81.15851 14773 ft 417 kts 37°
2026-05-04 00:20 25.42359 -81.13831 14222 ft 399 kts 38°
2026-05-04 00:20 25.44446 -81.11906 13678 ft 382 kts 37°
2026-05-04 00:20 25.46429 -81.10081 13174 ft 366 kts 38°
2026-05-04 00:20 25.48350 -81.08315 12691 ft 353 kts 37°
2026-05-04 00:21 25.50203 -81.06612 12209 ft 340 kts 37°
2026-05-04 00:21 25.52031 -81.04935 11769 ft 344 kts 37°
2026-05-04 00:21 25.53909 -81.03215 11250 ft 357 kts 37°
2026-05-04 00:21 25.55807 -81.01475 10761 ft 355 kts 38°
2026-05-04 00:22 25.57684 -80.99752 10409 ft 348 kts 37°
2026-05-04 00:22 25.59528 -80.98058 10238 ft 335 kts 37°
2026-05-04 00:22 25.61344 -80.96513 10141 ft 320 kts 31°
2026-05-04 00:22 25.63284 -80.95475 9942 ft 304 kts 11°
2026-05-04 00:23 25.65359 -80.95134 9544 ft 299 kts 359°
2026-05-04 00:23 25.67412 -80.95052 9154 ft 297 kts 357°
2026-05-04 00:23 25.69493 -80.94994 8767 ft 295 kts 358°
2026-05-04 00:23 25.71522 -80.94892 8396 ft 294 kts 359°
2026-05-04 00:24 25.73550 -80.94750 8026 ft 292 kts
2026-05-04 00:24 25.75598 -80.94585 7655 ft 290 kts
2026-05-04 00:24 25.77600 -80.94418 7370 ft 286 kts
2026-05-04 00:24 25.79537 -80.94120 7141 ft 282 kts 13°
2026-05-04 00:25 25.81226 -80.93047 6787 ft 286 kts 43°
2026-05-04 00:25 25.82447 -80.91293 6422 ft 287 kts 56°
2026-05-04 00:25 25.83502 -80.89421 6065 ft 285 kts 57°
2026-05-04 00:25 25.84549 -80.87556 5748 ft 282 kts 57°
2026-05-04 00:26 25.85598 -80.85744 5469 ft 278 kts 56°
2026-05-04 00:26 25.86662 -80.83958 5179 ft 275 kts 55°
2026-05-04 00:26 25.87714 -80.82220 4976 ft 268 kts 55°
2026-05-04 00:26 25.88758 -80.80496 4982 ft 270 kts 55°
2026-05-04 00:27 25.89798 -80.78773 4978 ft 272 kts 55°
2026-05-04 00:27 25.90855 -80.77017 4976 ft 271 kts 55°
2026-05-04 00:27 25.91908 -80.75266 4977 ft 271 kts 55°
2026-05-04 00:27 25.92955 -80.73523 4983 ft 273 kts 55°
2026-05-04 00:28 25.94008 -80.71772 4981 ft 273 kts 55°
2026-05-04 00:28 25.95066 -80.70013 4979 ft 273 kts 55°
2026-05-04 00:28 25.96106 -80.68281 4981 ft 272 kts 55°
2026-05-04 00:28 25.97151 -80.66519 4980 ft 274 kts 56°
2026-05-04 00:29 25.98210 -80.64735 4976 ft 273 kts 55°
2026-05-04 00:29 25.99255 -80.62999 4979 ft 273 kts 55°
2026-05-04 00:29 26.00316 -80.61250 4985 ft 272 kts 55°
2026-05-04 00:29 26.01377 -80.59493 4981 ft 273 kts 55°
2026-05-04 00:30 26.02425 -80.57749 4968 ft 270 kts 55°
2026-05-04 00:30 26.03443 -80.56069 4977 ft 255 kts 54°
2026-05-04 00:30 26.04417 -80.54452 4995 ft 247 kts 54°
2026-05-04 00:30 26.05351 -80.52889 4983 ft 238 kts 55°
2026-05-04 00:31 26.06171 -80.51288 4979 ft 241 kts 66°
2026-05-04 00:31 26.06634 -80.49517 4973 ft 242 kts 82°
2026-05-04 00:31 26.06743 -80.47645 4975 ft 241 kts 89°
2026-05-04 00:31 26.06732 -80.45785 4977 ft 241 kts 91°
2026-05-04 00:32 26.06705 -80.43895 4928 ft 243 kts 91°
2026-05-04 00:32 26.06692 -80.42006 4601 ft 247 kts 90°
2026-05-04 00:32 26.06690 -80.40101 4238 ft 250 kts 90°
2026-05-04 00:32 26.06686 -80.38160 3894 ft 251 kts 89°
2026-05-04 00:33 26.06679 -80.36243 3571 ft 245 kts 89°
2026-05-04 00:33 26.06666 -80.32736 2918 ft 208 kts 89°
2026-05-04 00:33 26.06661 -80.31210 2668 ft 191 kts 88°
2026-05-04 00:34 26.06655 -80.29775 2420 ft 178 kts 88°
2026-05-04 00:34 26.06648 -80.28454 2234 ft 164 kts 87°
2026-05-04 00:34 26.06642 -80.27187 1999 ft 162 kts 86°
2026-05-04 00:34 26.06639 -80.25990 1733 ft 149 kts 87°
2026-05-04 00:35 26.06635 -80.24866 1577 ft 145 kts 86°
2026-05-04 00:35 26.06633 -80.23727 1395 ft 149 kts 87°
2026-05-04 00:35 26.06624 -80.22568 1213 ft 150 kts 87°
2026-05-04 00:35 26.06622 -80.21406 999 ft 151 kts 88°
2026-05-04 00:36 26.06613 -80.20246 795 ft 150 kts 88°
2026-05-04 00:36 26.06601 -80.19098 617 ft 148 kts 88°
2026-05-04 00:36 26.06598 -80.17956 429 ft 148 kts 88°
2026-05-04 00:36 26.06594 -80.16815 223 ft 149 kts 88°
2026-05-04 00:37 26.06588 -80.15666 30 ft 146 kts 89°
2026-05-04 00:37 26.06582 -80.14710 11 ft 90 kts 89°
2026-05-04 00:37 26.06594 -80.14300 11 ft 23 kts 71°
2026-05-04 00:37 26.06658 -80.14230 11 ft 9 kts 352°
2026-05-04 00:38 26.06691 -80.14289 11 ft 9 kts 273°
2026-05-04 00:38 26.06692 -80.14364 11 ft 9 kts 269°
2026-05-04 00:38 26.06691 -80.14414 11 ft 5 kts 269°
2026-05-04 00:38 26.06692 -80.14470 11 ft 10 kts 271°
2026-05-04 00:39 26.06693 -80.14549 11 ft 10 kts 270°
2026-05-04 00:39 26.06693 -80.14630 11 ft 10 kts 270°
2026-05-04 00:39 26.06693 -80.14714 11 ft 13 kts 270°
2026-05-04 00:39 26.06695 -80.14848 11 ft 18 kts 270°
2026-05-04 00:40 26.06694 -80.14987 11 ft 18 kts 270°
2026-05-04 00:40 26.06707 -80.15112 11 ft 14 kts 308°
2026-05-04 00:40 26.06796 -80.15130 11 ft 13 kts
2026-05-04 00:40 26.06888 -80.15126 11 ft 12 kts 17°
2026-05-04 00:41 26.06913 -80.15032 11 ft 15 kts 90°
2026-05-04 00:41 26.06912 -80.14902 11 ft 17 kts 90°
2026-05-04 00:41 26.06937 -80.14780 11 ft 16 kts 50°
2026-05-04 00:41 26.06906 -80.14683 11 ft 15 kts 136°
2026-05-04 00:42 26.06828 -80.14597 11 ft 15 kts 128°
2026-05-04 00:42 26.06819 -80.14548 11 ft 0 kts 90°
2026-05-04 00:42 26.06836 -80.14546 11 ft 3 kts 319°
2026-05-04 00:43 26.06856 -80.14566 11 ft 5 kts 347°
2026-05-04 00:43 26.06885 -80.14554 11 ft 2 kts 24°
2026-05-04 00:43 26.06885 -80.14553 11 ft 0 kts 24°